#timestamp,LO_Frequency,Hit,StdDev 
1622494815.2,286047002.8,N
1622494835.0,286047000.1,N
1622494835.9,286047000.1,N
1622494855.7,286046999.1,N
1622494875.6,286046998.7,N
1622494895.4,286046998.9,N
1622494915.3,286046996.5,N
1622494935.1,286046996.9,N
1622494936.0,286046996.9,N
1622494955.8,286046999.1,N
1622494975.7,286046999.3,N
1622494995.5,286046999.1,N
1622495015.4,286046998.2,N
1622495035.2,286047000.6,N
1622495055.0,286047001.5,N
1622495055.9,286047001.5,N
1622495075.8,286047001.5,N
1622495095.6,286047002.8,N
1622495115.4,286046998.3,N
1622495135.3,286047001.2,N
1622495155.1,286047002.2,N
1622495175.9,286047002.9,N
1622495195.7,286047004.8,N
1622495215.5,286047005.3,N
1622495235.4,286047001.8,N
1622495255.2,286047001.9,N
1622495275.0,286047001.5,N
1622495275.9,286047001.5,N
1622495295.8,286047001.6,N
1622495315.6,286047000.0,N
1622495335.5,286046998.6,N
1622495355.3,286047002.6,N
1622495375.1,286046999.3,N
1622495395.9,286046995.4,N
1622495415.7,286046997.5,N
1622495435.5,286047001.0,N
1622495455.4,286046999.3,N
1622495475.2,286046998.4,N
1622495495.1,286046999.9,N
1622495496.0,286046999.9,N
1622495515.8,286047001.6,N
1622495535.6,286047001.8,N
1622495555.5,286047004.3,N
1622495575.3,286047002.5,N
1622495595.1,286047002.0,N
1622495615.9,286047001.3,N
1622495635.7,286047003.8,N
1622495655.6,286047003.6,N
1622495675.4,286047002.4,N
1622495695.2,286047002.3,N
1622495715.1,286047001.6,N
1622495716.0,286047001.6,N
1622495735.8,286047003.8,N
1622495755.6,286047002.6,N
1622495775.5,286046999.8,N
1622495795.3,286047001.0,N
1622495815.2,286047002.7,N
1622495835.9,286047004.1,N
1622495855.7,286047001.9,N
1622495875.6,286047001.9,N
1622495895.4,286046999.7,N
1622495915.2,286047002.7,N
1622495935.1,286047000.9,N
1622495936.0,286047000.9,N
1622495955.8,286047001.2,N
1622495975.7,286046999.8,N
1622495995.5,286046999.6,N
1622496015.4,286046996.8,N
1622496035.2,286046998.9,N
1622496055.0,286046998.9,N
1622496055.9,286046998.9,N
1622496075.8,286047000.9,N
1622496095.6,286047002.5,N
1622496115.5,286047000.6,N
1622496135.3,286047002.8,N
1622496155.1,286046999.9,N
1622496175.9,286047004.4,N
1622496195.7,286047003.1,N
1622496215.6,286047002.2,N
1622496235.4,286047000.6,N
1622496255.2,286047001.5,N
1622496275.1,286047001.6,N
1622496276.0,286047001.6,N
1622496295.8,286047000.9,N
1622496315.6,286046999.9,N
1622496335.5,286047000.0,N
1622496355.3,286047002.2,N
1622496375.2,286047001.5,N
1622496395.9,286047002.0,N
1622496415.7,286047000.3,N
1622496435.6,286047002.8,N
1622496455.4,286046998.3,N
1622496475.3,286047000.1,N
1622496495.1,286047002.3,N
1622496515.8,286047002.8,N
1622496535.7,286046999.3,N
1622496555.9,286046998.2,N
1622496575.7,286046997.7,N
1622496595.6,286046995.8,N
1622496615.4,286046997.0,N
1622496635.3,286047001.0,N
1622496655.1,286047000.0,N
1622496656.0,286047000.0,N
1622496675.8,286047001.7,N
1622496695.7,286047001.8,N
1622496715.5,286047000.0,N
1622496735.3,286047001.5,N
1622496755.2,286047003.5,N
1622496775.0,286047001.5,N
1622496775.9,286047001.5,N
1622496795.8,286047003.6,N
1622496815.6,286047004.2,N
1622496835.5,286047001.8,N
1622496855.3,286047002.7,N
1622496875.1,286046998.4,N
1622496895.9,286047001.0,N
1622496915.7,286046999.0,N
1622496935.5,286046999.1,N
1622496955.4,286046996.9,N
1622496975.2,286046997.4,N
1622496995.1,286046996.7,N
1622496996.0,286046996.7,N
1622497015.8,286046997.0,N
1622497035.6,286046996.8,N
1622497055.5,286046997.5,N
1622497075.3,286046997.2,N
1622497095.2,286046996.1,N
1622497115.9,286046994.9,N
1622497135.7,286046996.6,N
1622497155.6,286046995.0,N
1622497175.4,286046993.6,N
1622497195.3,286046993.5,N
1622497215.1,286046995.3,N
1622497216.0,286046995.3,N
1622497235.8,286046993.3,N
1622497255.7,286046994.7,N
1622497275.5,286046992.5,N
1622497295.3,286046992.0,N
1622497315.2,286046994.5,N
1622497335.0,286046994.2,N
1622497335.9,286046994.2,N
1622497355.8,286046991.7,N
1622497375.6,286046994.2,N
1622497395.4,286046996.0,N
1622497415.3,286046993.9,N
1622497435.1,286046992.2,Y
1622497455.8,286046997.1,P
1622497475.7,286046999.6,N
1622497495.5,286046999.4,N
1622497515.4,286046999.2,N
1622497535.2,286046997.0,N
1622497555.0,286046995.8,N
1622497555.9,286046995.8,N
1622497575.8,286046995.6,N
1622497595.6,286046997.8,N
1622497615.4,286046997.2,N
1622497635.3,286046996.7,N
1622497655.1,286046998.0,N
1622497675.9,286046997.5,N
1622497695.7,286046996.8,N
1622497715.5,286046997.3,N
1622497735.4,286046997.3,N
1622497755.2,286046999.0,N
1622497775.0,286046999.4,N
1622497775.9,286046999.4,N
1622497795.8,286047001.0,N
1622497815.6,286047000.9,N
1622497835.5,286046999.4,N
1622497855.3,286046996.5,N
1622497875.1,286046999.1,N
1622497895.9,286046998.9,N
1622497915.7,286046999.5,N
1622497935.5,286046999.5,N
1622497955.4,286046996.6,N
1622497975.2,286046996.8,N
1622497995.0,286046996.8,N
1622497995.9,286046996.8,N
1622498015.8,286046994.9,Y
1622498035.6,286046999.2,P
1622498055.5,286046999.6,N
1622498075.3,286046997.3,P
1622498095.1,286046995.4,Y
1622498115.9,286046996.7,P
1622498135.7,286046999.0,N
1622498155.6,286046998.5,N
1622498175.4,286047002.8,Y
1622498195.2,286047004.2,P
1622498215.1,286047001.6,N
1622498216.0,286047001.6,N
1622498235.8,286047002.1,N
1622498255.6,286047001.5,N
1622498275.5,286047001.7,N
1622498295.3,286047003.2,N
1622498315.2,286047003.4,N
1622498335.9,286047003.3,N
1622498355.7,286047006.0,Y
1622498375.6,286047001.5,P
1622498395.4,286047003.6,P
